Regional Weather Roundup
Issued by NWS

Home | Current Version | Previous Version | Graphics & Text | Print | Product List | Glossary On
Versions: 1 2 3 4 5 6 7 8 9 10 11 12 13 14 15 16 17 18 19 20 21 22 23 24 25 26 27 28 29 30 31 32 33 34 35 36 37 38 39 40 41 42 43 44 45 46 47 48 49 50
000
ASUS43 KDTX 200010
RWRMI
MICHIGAN HOURLY REGIONAL WEATHER ROUNDUP
NATIONAL WEATHER SERVICE DETROIT/PONTIAC MI
800 PM EDT TUE SEP 19 2017

NOTE: "FAIR" INDICATES FEW OR NO CLOUDS BELOW 12,000 FEET WITH NO
SIGNIFICANT WEATHER AND/OR OBSTRUCTION TO VISIBILITY.

MIZ047>049-052>055-059>063-066>070-074>076-081>083-200100-
SOUTHEAST LOWER MICHIGAN

CITY           SKY/WX    TMP DP  RH WIND       PRES   REMARKS
ADRIAN         CLOUDY    69  67  93 CALM      29.95R
6HR MIN TEMP:  69; 6HR MAX TEMP:  74; 6HR PCP: TRACE;

ALMA           CLOUDY    68  62  82 NE9       29.98S
ANN ARBOR      CLOUDY    69  67  93 CALM      29.94S
BAD AXE        CLOUDY    67  64  91 NE3       30.00S
6HR MIN TEMP:  67; 6HR MAX TEMP:  70;

CARO           CLOUDY    68  64  88 CALM      29.97F
DETROIT CITY   CLOUDY    69  69 100 NE3       29.95S FOG
6HR MIN TEMP:  69; 6HR MAX TEMP:  70; 6HR PCP:  0.07;

DETROIT        CLOUDY    69  67  93 NE3       29.94F
6HR MIN TEMP:  69; 6HR MAX TEMP:  71; 6HR PCP:  0.02;

FLINT          CLOUDY    69  65  86 NE7       29.96S
6HR MIN TEMP:  66; 6HR MAX TEMP:  70; 6HR PCP: TRACE;

GROSSE ILE     PTCLDY    68  67  96 CALM      29.93S FOG
6HR MIN TEMP:  68; 6HR MAX TEMP:  71; 6HR PCP:  0.03;

HILLSDALE      CLOUDY    64  63  94 SE3       29.94R
HOWELL         LGT RAIN  67  65  90 N3        29.96S
6HR MIN TEMP:  67; 6HR MAX TEMP:  69;


CITY           SKY/WX    TMP DP  RH WIND       PRES   REMARKS
JACKSON        CLOUDY    70  66  87 NE3       29.94S
6HR MIN TEMP:  69; 6HR MAX TEMP:  72;

LAMBERTVILLE   CLOUDY    70  67  90 CALM      29.93S FOG
6HR MIN TEMP:  70; 6HR MAX TEMP:  72;

LANSING        CLOUDY    69  62  78 NE7       29.96S
6HR MIN TEMP:  66; 6HR MAX TEMP:  72;

LAPEER         CLOUDY    68  66  92 NE5       29.98S
6HR MIN TEMP:  67; 6HR MAX TEMP:  71;

MASON          CLOUDY    69  65  85 NE5       29.95S
MONROE         CLOUDY    69  66  91 CALM      29.93S FOG
MT. CLEMENS    DRIZZLE   68  68 100 CALM      29.94S FOG
6HR MIN TEMP:  68; 6HR MAX TEMP:  70; 6HR PCP:  0.08;

PONTIAC        CLOUDY    69  67  93 E7        29.95S
6HR MIN TEMP:  69; 6HR MAX TEMP:  71; 6HR PCP: TRACE;

PORT HOPE        N/A     67  65  93 E9        29.98S
6HR MIN TEMP:  66; 6HR MAX TEMP:  67;

PORT HURON     CLOUDY    70  66  88 CALM      29.97S FOG
TRI CITIES     CLOUDY    67  65  93 NE10      29.99S
6HR MIN TEMP:  67; 6HR MAX TEMP:  71;

MIDLAND        CLOUDY    66  64  90 NE3       29.98S
6HR MIN TEMP:  66; 6HR MAX TEMP:  70;

TROY           CLOUDY    69  68  94 E5        29.97S FOG
SAGINAW HB     CLOUDY    66  63  88 N5        29.97F
$$
MIZ043>046-050>051-056>058-064>065-071>073-077>080-200100-
SOUTHWEST LOWER MICHIGAN

CITY           SKY/WX    TMP DP  RH WIND       PRES   REMARKS
BATTLE CREEK   CLOUDY    70  65  84 NE7       29.94F
6HR MIN TEMP:  65; 6HR MAX TEMP:  72;

BENTON HARBOR  MOCLDY    70  64  81 CALM      29.92S
6HR MIN TEMP:  69; 6HR MAX TEMP:  76; 6HR PCP: TRACE;

BIG RAPIDS     CLOUDY    67  59  74 SE7       29.97S
6HR MIN TEMP:  67; 6HR MAX TEMP:  74;

COLDWATER      CLOUDY    69  69 100 CALM      29.93S FOG
6HR MIN TEMP:  67; 6HR MAX TEMP:  70;

FREMONT        FAIR      69  61  76 E3        29.95S
HOLLAND        CLOUDY    72  60  66 E6        29.93F
6HR MIN TEMP:  72; 6HR MAX TEMP:  78;

GRAND RAPIDS   MOCLDY    69  61  75 NE7       29.94F
6HR MIN TEMP:  69; 6HR MAX TEMP:  75;

IONIA          FAIR      67  61  78 NE5       29.94F
6HR MIN TEMP:  67; 6HR MAX TEMP:  73;

KALAMAZOO      RAIN      69  63  81 CALM      29.94S
6HR MIN TEMP:  68; 6HR MAX TEMP:  72; 6HR PCP:  0.02;

LUDINGTON      CLEAR     63  56  78 CALM      29.93S
6HR MIN TEMP:  63; 6HR MAX TEMP:  76;

MARSHALL       CLOUDY    69  68  98 NE3       29.94S
6HR MIN TEMP:  68; 6HR MAX TEMP:  71;

MOUNT PLEASANT CLOUDY    68  62  79 E6        29.97F
6HR MIN TEMP:  68; 6HR MAX TEMP:  72;

MUSKEGON       PTCLDY    71  60  68 E6        29.94S
6HR MIN TEMP:  71; 6HR MAX TEMP:  78;

SOUTH HAVEN    PTCLDY    71  64  78 CALM      29.93S
$$
MIZ016>042-200100-
NORTHERN LOWER MICHIGAN

CITY           SKY/WX    TMP DP  RH WIND       PRES   REMARKS
ALPENA         CLOUDY    64  61  90 E5        30.02S
6HR MIN TEMP:  64; 6HR MAX TEMP:  69;

BEAVER ISLAND  CLEAR     64  58  81 E8        29.98S
6HR MIN TEMP:  64; 6HR MAX TEMP:  73;

BELLAIRE       CLEAR     63  56  80 CALM      29.97S
6HR MIN TEMP:  63; 6HR MAX TEMP:  77;

CADILLAC       CLEAR     67  55  66 SE5       29.98S
CHARLEVOIX     CLEAR     67  59  74 NE9       30.00S
FRANKFORT      CLEAR     65  60  84 CALM      29.94S
GAYLORD        CLEAR     65  54  67 E3        30.00S
6HR MIN TEMP:  65; 6HR MAX TEMP:  72;

GRAYLING       CLEAR     64  54  68 E6        30.00S
6HR MIN TEMP:  64; 6HR MAX TEMP:  74;

HARBOR SPRINGS CLEAR     64  58  82 NE8       29.99S
HOUGHTON LAKE  PTCLDY    64  58  80 SE3       30.00S
6HR MIN TEMP:  64; 6HR MAX TEMP:  73;

MANISTEE       CLEAR     64  55  72 CALM      29.93F
OSCODA         CLOUDY    65  62  91 NW6       30.00S
6HR MIN TEMP:  65; 6HR MAX TEMP:  69;

PELLSTON       CLEAR     64  57  78 E3        30.01R
6HR MIN TEMP:  64; 6HR MAX TEMP:  74;

ROGERS CITY    CLEAR     62  58  88 SE7       30.03S
TRAVERSE CITY  PTCLDY    68  57  68 CALM      29.94F
6HR MIN TEMP:  67; 6HR MAX TEMP:  76;

$$
MIZ007>008-015-200100-
EASTERN UPPER MICHIGAN

CITY           SKY/WX    TMP DP  RH WIND       PRES   REMARKS
KINROSS        CLEAR     63  48  58 E6        30.02S
6HR MIN TEMP:  63; 6HR MAX TEMP:  71;

MACKINAC ISLAN CLEAR     62  57  82 E7        30.01S
6HR MIN TEMP:  62; 6HR MAX TEMP:  67;

NEWBERRY       CLEAR     60  51  70 SE6       29.99S
6HR MIN TEMP:  60; 6HR MAX TEMP:  72;

S. S. MARIE    CLEAR     64  52  64 E5        30.01S
6HR MIN TEMP:  64; 6HR MAX TEMP:  73;

MUNISING         N/A     64  57  78 CALM      29.97R
6HR MIN TEMP:  64; 6HR MAX TEMP:  75;

$$
MIZ004>006-011>014-085-200100-
CENTRAL UPPER MICHIGAN

CITY           SKY/WX    TMP DP  RH WIND       PRES   REMARKS
MANISTIQUE     CLEAR     61  49  65 E5        29.98S
6HR MIN TEMP:  61; 6HR MAX TEMP:  69;

ESCANABA       CLEAR     62  59  90 E3        29.97F
6HR MIN TEMP:  62; 6HR MAX TEMP:  68;

MENOMINEE      CLEAR     64  58  80 E6        29.96S
6HR MIN TEMP:  64; 6HR MAX TEMP:  71;

SAWYER-GWINN   CLEAR     61  52  72 S6        29.98S
$$
MIZ001>003-009>011-084-200100-
WESTERN UPPER MICHIGAN

CITY           SKY/WX    TMP DP  RH WIND       PRES   REMARKS
IRON MOUNTAIN  CLEAR     65  54  67 SE7       29.95S
6HR MIN TEMP:  65; 6HR MAX TEMP:  74;

HOUGHTON       CLEAR     60  53  77 E9        29.93F
6HR MIN TEMP:  60; 6HR MAX TEMP:  68;

COPPER HARBOR    N/A     64  52  64 S8        29.93F
6HR MIN TEMP:  64; 6HR MAX TEMP:  69;

IRONWOOD       CLEAR     70  58  65 E6        29.88S
6HR MIN TEMP:  70; 6HR MAX TEMP:  75;

$$

ABBREVIATIONS USED IN REMARKS
   TC - TEMPERATURE IN CELSIUS
  WCI - WIND CHILL INDEX
   HX - HEAT INDEX
  VSB - VISIBILITY





USA.gov is the U.S. government's official web portal to all federal, state and local government web resources and services.